FW8891 Weather Reports


Display with metric or nautical units.
time (UTC)temp
F
wind
direction
speed
MPH
gust
MPH
rain 1hr
in
rain 24hr
in
rain mn
in
humidity
%
barometer
mb
20260831004604 103 214 3.0 11.0 0.00 0.04 0.00 34 1008.5
20260831004101 103 207 2.0 11.0 0.00 0.04 0.00 34 1008.6
20260831003601 103 174 6.0 10.0 0.00 0.04 0.00 34 1008.6
20260831003100 103 135 6.0 10.0 0.00 0.04 0.00 34 1008.6
20260831002602 103 173 5.0 8.0 0.00 0.04 0.00 35 1008.6
20260831002058 103 119 4.0 10.0 0.00 0.04 0.00 34 1008.6
20260831001607 104 126 5.0 10.0 0.00 0.04 0.00 34 1008.6
20260831001103 103 156 4.0 8.0 0.00 0.04 0.00 34 1008.7
20260831000559 103 106 4.0 10.0 0.00 0.04 0.00 34 1008.7
20260831000108 103 148 5.0 10.0 0.00 0.04 0.00 34 1008.7
20260830235559 103 137 3.0 10.0 0.00 0.04 0.00 34 1008.8
20260830235058 104 134 4.0 10.0 0.00 0.04 0.00 33 1008.9
20260830234603 105 210 5.0 10.0 0.00 0.04 0.00 33 1009.0
20260830234059 105 252 5.0 13.0 0.00 0.04 0.00 32 1009.0
20260830233559 105 179 5.0 13.0 0.00 0.04 0.00 32 1009.0
20260830233108 105 134 8.0 12.0 0.00 0.04 0.00 32 1009.1
20260830232602 104 176 5.0 10.0 0.00 0.04 0.00 33 1008.9
20260830232059 104 144 2.0 10.0 0.00 0.04 0.00 33 1009.0
20260830231610 105 183 4.0 10.0 0.00 0.04 0.00 32 1009.2
20260830231059 105 109 5.0 10.0 0.00 0.04 0.00 32 1009.3
20260830230559 105 114 2.0 9.0 0.00 0.04 0.00 33 1009.3
20260830230106 104 218 5.0 11.0 0.00 0.04 0.00 34 1009.4
20260830225559 105 148 2.0 11.0 0.00 0.04 0.00 34 1009.5
20260830225059 104 233 6.0 11.0 0.00 0.04 0.00 35 1009.5
20260830224636 103 98 4.0 11.0 0.00 0.04 0.00 35 1009.6
20260830224059 104 110 5.0 10.0 0.00 0.04 0.00 34 1009.7
20260830223558 104 170 5.0 19.0 0.00 0.04 0.00 35 1009.9
20260830223104 104 163 8.0 19.0 0.00 0.04 0.00 35 1010.0
20260830222602 103 94 4.0 10.0 0.00 0.04 0.00 35 1010.0
20260830222059 103 0 5.0 10.0 0.00 0.04 0.00 34 1010.1
20260830221616 104 126 3.0 8.0 0.00 0.04 0.00 34 1010.3
20260830221059 105 188 2.0 8.0 0.00 0.04 0.00 34 1010.3
20260830220600 104 259 2.0 10.0 0.00 0.04 0.00 34 1010.4
20260830220143 104 179 3.0 10.0 0.00 0.04 0.00 35 1010.4
20260830215559 103 134 5.0 11.0 0.00 0.04 0.00 34 1010.6
20260830215100 103 170 1.0 11.0 0.00 0.04 0.00 35 1010.8
20260830214605 104 115 5.0 10.0 0.00 0.04 0.00 35 1010.9
20260830214100 104 203 3.0 9.0 0.00 0.04 0.00 35 1010.9
20260830213559 104 120 4.0 8.0 0.00 0.04 0.00 35 1011.0
20260830213109 104 138 5.0 8.0 0.00 0.04 0.00 35 1011.1
20260830212559 103 133 4.0 8.0 0.00 0.04 0.00 36 1011.2
20260830212059 103 124 4.0 10.0 0.00 0.04 0.00 35 1011.4
20260830211605 103 117 4.0 10.0 0.00 0.04 0.00 35 1011.3
20260830211104 104 108 4.0 10.0 0.00 0.04 0.00 35 1011.5
20260830210559 104 94 3.0 10.0 0.00 0.04 0.00 34 1011.6
20260830210105 104 105 4.0 10.0 0.00 0.04 0.00 34 1011.7
20260830205559 103 83 2.0 7.0 0.00 0.04 0.00 35 1011.8
20260830205101 104 130 3.0 6.0 0.00 0.04 0.00 34 1011.9
20260830204601 103 87 2.0 7.0 0.00 0.04 0.00 34 1012.0
20260830204059 103 255 2.0 8.0 0.00 0.04 0.00 35 1012.2
20260830203559 102 126 5.0 8.0 0.00 0.04 0.00 35 1012.3
20260830203116 102 127 3.0 9.0 0.00 0.04 0.00 35 1012.4
20260830202559 101 128 3.0 9.0 0.00 0.04 0.00 35 1012.4
20260830202059 102 129 4.0 9.0 0.00 0.04 0.00 35 1012.5
20260830201606 102 112 2.0 11.0 0.00 0.04 0.00 36 1012.5
20260830201059 101 124 6.0 11.0 0.00 0.04 0.00 36 1012.7
20260830200559 101 103 3.0 11.0 0.00 0.04 0.00 36 1012.8
20260830200105 102 158 3.0 11.0 0.00 0.04 0.00 36 1012.8
20260830195602 101 116 2.0 9.0 0.00 0.04 0.00 37 1012.9
20260830195102 101 124 4.0 9.0 0.00 0.04 0.00 37 1012.9
20260830194605 102 184 5.0 9.0 0.00 0.04 0.00 37 1013.0
20260830194102 102 137 2.0 9.0 0.00 0.04 0.00 36 1013.1
20260830193558 102 144 5.0 9.0 0.00 0.04 0.00 36 1013.2
20260830193113 102 153 5.0 9.0 0.00 0.04 0.00 36 1013.2
20260830192558 101 84 3.0 7.0 0.00 0.04 0.00 37 1013.3
20260830192101 100 129 2.0 6.0 0.00 0.04 0.00 37 1013.4
20260830191621 100 79 2.0 6.0 0.00 0.04 0.00 37 1013.4
20260830191059 100 96 1.0 10.0 0.00 0.04 0.00 37 1013.5
20260830190559 101 244 3.0 10.0 0.00 0.04 0.00 38 1013.7
20260830190109 99 123 1.0 7.0 0.00 0.04 0.00 38 1013.7
20260830185624 100 121 3.0 7.0 0.00 0.04 0.00 38 1013.8
20260830185105 100 118 2.0 7.0 0.00 0.04 0.00 37 1013.9
20260830184609 100 172 2.0 8.0 0.00 0.04 0.00 39 1014.0
20260830184059 98 121 3.0 8.0 0.00 0.04 0.00 39 1014.1
20260830183602 99 125 3.0 6.0 0.00 0.04 0.00 38 1014.1
20260830183103 98 286 1.0 8.0 0.00 0.04 0.00 39 1014.2
20260830182559 97 110 2.0 8.0 0.00 0.04 0.00 38 1014.2
20260830182059 98 207 4.0 8.0 0.00 0.04 0.00 38 1014.3
20260830181604 100 137 2.0 8.0 0.00 0.04 0.00 36 1014.3
20260830181100 100 178 2.0 7.0 0.00 0.04 0.00 37 1014.4
20260830180559 100 229 1.0 7.0 0.00 0.04 0.00 37 1014.5
20260830180107 99 243 2.0 7.0 0.00 0.04 0.00 37 1014.6
20260830175559 98 173 3.0 7.0 0.00 0.04 0.00 39 1014.6
20260830175102 97 88 4.0 7.0 0.00 0.04 0.00 38 1014.6
20260830174603 98 121 2.0 5.0 0.00 0.04 0.00 39 1014.6
20260830174058 97 198 1.0 5.0 0.00 0.04 0.00 40 1014.7
20260830173558 97 301 1.0 7.0 0.00 0.04 0.00 40 1014.7
20260830173107 97 138 3.0 7.0 0.00 0.04 0.00 40 1014.7
20260830172601 97 113 1.0 6.0 0.00 0.04 0.00 40 1014.7
20260830172058 96 124 0.0 6.0 0.00 0.04 0.00 41 1014.9
20260830171613 96 87 2.0 6.0 0.00 0.04 0.00 41 1015.0
20260830171059 96 89 1.0 6.0 0.00 0.04 0.00 41 1014.9
20260830170559 96 129 1.0 6.0 0.00 0.04 0.00 41 1014.9
20260830170109 95 111 1.0 8.0 0.00 0.04 0.00 42 1014.9
20260830165559 94 93 3.0 8.0 0.00 0.04 0.00 42 1014.9
20260830165059 95 71 2.0 5.0 0.00 0.04 0.00 43 1014.9
20260830164612 94 36 0.0 6.0 0.00 0.04 0.00 43 1014.9
20260830164102 93 135 1.0 6.0 0.00 0.04 0.00 44 1014.9
20260830163559 93 86 3.0 9.0 0.00 0.04 0.00 45 1015.0
20260830163103 92 129 4.0 9.0 0.00 0.04 0.00 45 1014.9
20260830162559 92 161 4.0 8.0 0.00 0.04 0.00 45 1014.9
20260830162058 92 119 5.0 9.0 0.00 0.04 0.00 45 1014.9
20260830161613 92 131 4.0 10.0 0.00 0.04 0.00 46 1014.8
20260830161058 92 144 3.0 10.0 0.00 0.04 0.00 45 1014.7
20260830160603 92 135 6.0 10.0 0.00 0.04 0.00 46 1014.9
20260830160104 92 127 4.0 8.0 0.00 0.04 0.00 46 1014.7
20260830155602 92 134 4.0 9.0 0.00 0.04 0.00 46 1014.7
20260830155058 92 139 5.0 9.0 0.00 0.04 0.00 46 1014.7
20260830154611 91 124 4.0 9.0 0.00 0.04 0.00 46 1014.7
20260830154103 91 78 4.0 9.0 0.00 0.04 0.00 47 1014.6
20260830153602 91 100 5.0 9.0 0.00 0.04 0.00 47 1014.7
20260830153111 90 146 5.0 9.0 0.00 0.04 0.00 48 1014.7
20260830152558 90 107 5.0 8.0 0.00 0.04 0.00 48 1014.6
20260830152058 90 121 4.0 7.0 0.00 0.04 0.00 50 1014.6
20260830151611 89 98 4.0 7.0 0.00 0.04 0.00 51 1014.6
20260830151058 88 146 2.0 6.0 0.00 0.04 0.00 53 1014.7
20260830150600 88 108 1.0 3.0 0.00 0.04 0.00 55 1014.7
20260830150105 87 91 0.0 2.0 0.00 0.04 0.00 56 1014.7
20260830145559 87 0 0.0 4.0 0.00 0.04 0.00 58 1014.9
20260830145059 87 89 1.0 5.0 0.00 0.04 0.00 58 1014.9
20260830144607 87 0 2.0 5.0 0.00 0.04 0.00 59 1014.9
20260830144100 87 50 2.0 4.0 0.00 0.04 0.00 58 1014.7
20260830143559 86 43 2.0 5.0 0.00 0.04 0.00 60 1014.7
20260830143114 86 349 3.0 5.0 0.00 0.04 0.00 61 1014.9
20260830142559 85 51 3.0 5.0 0.00 0.04 0.00 62 1014.7
20260830142100 85 65 2.0 5.0 0.00 0.04 0.00 65 1014.7
20260830141605 84 65 3.0 5.0 0.00 0.04 0.00 66 1014.7
20260830141102 83 60 2.0 3.0 0.00 0.04 0.00 68 1014.6
20260830140603 83 53 2.0 3.0 0.00 0.04 0.00 69 1014.6
20260830140103 82 63 2.0 3.0 0.00 0.04 0.00 69 1014.5
20260830135559 82 63 1.0 3.0 0.00 0.04 0.00 70 1014.4
20260830135059 82 51 1.0 3.0 0.00 0.04 0.00 71 1014.3
20260830134610 82 66 1.0 3.0 0.00 0.04 0.00 71 1014.2
20260830134059 82 56 1.0 3.0 0.00 0.04 0.00 71 1014.1
20260830133559 81 67 1.0 3.0 0.00 0.04 0.00 72 1014.0
20260830133112 81 0 0.0 3.0 0.00 0.04 0.00 72 1013.9
20260830132558 81 64 1.0 4.0 0.00 0.04 0.00 72 1013.9
20260830132058 81 58 1.0 5.0 0.00 0.04 0.00 72 1013.8
20260830131606 81 0 2.0 6.0 0.00 0.04 0.00 73 1013.7
20260830131059 81 51 2.0 6.0 0.00 0.04 0.00 73 1013.6
20260830130559 81 58 3.0 7.0 0.00 0.04 0.00 73 1013.6
20260830130109 81 59 4.0 7.0 0.00 0.04 0.00 72 1013.4
20260830125559 81 71 1.0 4.0 0.00 0.04 0.00 73 1013.3
20260830125058 81 76 1.0 4.0 0.00 0.04 0.00 74 1013.3
20260830124602 80 100 2.0 4.0 0.00 0.04 0.00 75 1013.3
20260830124058 80 103 2.0 3.0 0.00 0.04 0.00 75 1013.3
20260830123558 81 127 0.0 4.0 0.00 0.04 0.00 74 1013.2
20260830123127 81 115 1.0 4.0 0.00 0.04 0.00 75 1013.0
20260830122559 81 107 1.0 2.0 0.00 0.04 0.00 75 1013.0
20260830122102 81 92 0.0 2.0 0.00 0.04 0.00 74 1013.0
20260830121608 81 0 0.0 0.0 0.00 0.04 0.00 73 1012.9
20260830121102 81 0 0.0 0.0 0.00 0.04 0.00 72 1012.9
20260830120558 81 0 0.0 0.0 0.00 0.04 0.00 72 1012.8
20260830120109 81 0 0.0 0.0 0.00 0.04 0.00 71 1012.8
20260830115558 81 0 0.0 0.0 0.00 0.04 0.00 70 1012.7
20260830115058 81 0 0.0 0.0 0.00 0.04 0.00 70 1012.7
20260830114610 81 0 0.0 0.0 0.00 0.04 0.00 70 1012.7
20260830114057 81 0 0.0 0.0 0.00 0.04 0.00 70 1012.7
20260830113558 81 0 0.0 0.0 0.00 0.04 0.00 71 1012.7
20260830113104 81 0 0.0 0.0 0.00 0.04 0.00 71 1012.6
20260830112558 81 0 0.0 0.0 0.00 0.04 0.00 71 1012.7
20260830112100 81 0 0.0 0.0 0.00 0.04 0.00 71 1012.7
20260830111605 81 0 0.0 0.0 0.00 0.04 0.00 72 1012.7
20260830111100 80 0 0.0 0.0 0.00 0.04 0.00 72 1012.7
20260830110600 80 0 0.0 0.0 0.00 0.04 0.00 73 1012.6
20260830110108 81 0 0.0 0.0 0.00 0.04 0.00 72 1012.6
20260830105600 81 0 0.0 0.0 0.00 0.04 0.00 72 1012.5
20260830105059 81 0 0.0 0.0 0.00 0.04 0.00 72 1012.5
20260830104602 81 0 0.0 0.0 0.00 0.04 0.00 72 1012.5
20260830104059 81 0 0.0 0.0 0.00 0.04 0.00 72 1012.6
20260830103559 81 0 0.0 0.0 0.00 0.04 0.00 72 1012.6
20260830103104 81 0 0.0 0.0 0.00 0.04 0.00 72 1012.5
20260830102559 81 0 0.0 0.0 0.00 0.04 0.00 71 1012.5
20260830102100 81 0 0.0 0.0 0.00 0.04 0.00 72 1012.4
20260830101606 81 0 0.0 1.0 0.00 0.04 0.00 72 1012.4
20260830101059 81 0 0.0 1.0 0.00 0.04 0.00 71 1012.5
20260830100601 81 0 0.0 1.0 0.00 0.04 0.00 70 1012.5
20260830100106 81 0 0.0 1.0 0.00 0.04 0.00 70 1012.4
20260830095559 81 342 0.0 0.0 0.00 0.04 0.00 72 1012.4
20260830095102 81 0 0.0 1.0 0.00 0.04 0.00 71 1012.4
20260830094602 81 0 0.0 1.0 0.00 0.04 0.00 72 1012.4
20260830094059 81 0 0.0 1.0 0.00 0.04 0.00 72 1012.4
20260830093618 81 0 0.0 1.0 0.00 0.04 0.00 72 1012.3
20260830093114 81 0 0.0 1.0 0.00 0.04 0.00 73 1012.3
20260830092603 81 0 0.0 1.0 0.00 0.04 0.00 73 1012.3
20260830092102 81 0 0.0 1.0 0.00 0.04 0.00 72 1012.3
20260830091602 81 0 0.0 2.0 0.00 0.04 0.00 72 1012.3
20260830091059 81 0 0.0 2.0 0.00 0.04 0.00 71 1012.3
20260830090600 81 311 0.0 3.0 0.00 0.04 0.00 71 1012.4
20260830090107 81 6 0.0 3.0 0.00 0.04 0.00 70 1012.5
20260830085559 81 3 0.0 4.0 0.00 0.04 0.00 71 1012.5
20260830085059 81 41 0.0 5.0 0.00 0.04 0.00 72 1012.5
20260830084614 81 330 2.0 5.0 0.00 0.04 0.00 72 1012.6
20260830084059 81 33 2.0 5.0 0.00 0.04 0.00 72 1012.6
20260830083559 81 346 1.0 6.0 0.00 0.04 0.00 71 1012.7
20260830083107 81 46 3.0 6.0 0.00 0.04 0.00 70 1012.7
20260830082558 81 65 3.0 5.0 0.00 0.04 0.00 70 1012.7
20260830082059 81 311 2.0 7.0 0.00 0.04 0.00 70 1012.7
20260830081610 81 359 1.0 7.0 0.00 0.04 0.00 71 1012.7
20260830081102 81 63 2.0 7.0 0.00 0.04 0.00 70 1012.7
20260830080559 81 65 3.0 6.0 0.00 0.04 0.00 70 1012.7
20260830080106 82 74 1.0 11.0 0.00 0.04 0.00 69 1012.6
20260830075600 82 354 2.0 11.0 0.00 0.04 0.00 68 1012.5
20260830075058 82 70 2.0 11.0 0.00 0.04 0.00 67 1012.5
20260830074614 83 71 6.0 11.0 0.01 0.04 0.00 65 1012.5
20260830074058 83 86 7.0 11.0 0.04 0.04 0.00 65 1012.6
20260830073559 83 77 5.0 10.0 0.04 0.04 0.00 65 1012.5
20260830073106 84 60 6.0 10.0 0.04 0.04 0.00 64 1012.6
20260830072559 84 63 4.0 10.0 0.04 0.04 0.00 64 1012.5
20260830072103 83 136 5.0 14.0 0.04 0.04 0.00 63 1012.6
20260830071603 83 101 5.0 16.0 0.04 0.04 0.00 65 1012.5
20260830071100 82 13 9.0 16.0 0.04 0.04 0.00 66 1012.5
20260830070602 82 58 9.0 16.0 0.04 0.04 0.00 69 1012.7
20260830070107 82 57 7.0 10.0 0.04 0.04 0.00 69 1012.7
20260830065603 82 49 3.0 10.0 0.04 0.04 0.04 69 1012.6
20260830065059 83 27 4.0 16.0 0.04 0.04 0.04 69 1012.6
20260830064606 85 44 4.0 19.0 0.03 0.03 0.03 63 1012.5
20260830064100 89 148 10.0 28.0 0.00 0.00 0.00 54 1012.1
20260830063600 91 129 13.0 28.0 0.00 0.00 0.00 46 1011.6
20260830063112 93 132 12.0 19.0 0.00 0.00 0.00 43 1011.3
20260830062602 94 131 7.0 15.0 0.00 0.00 0.00 42 1011.2
20260830062059 95 108 9.0 15.0 0.00 0.00 0.00 41 1011.1
20260830061620 96 142 6.0 15.0 0.00 0.00 0.00 40 1010.9
20260830061059 96 73 10.0 14.0 0.00 0.00 0.00 37 1010.8
20260830060559 96 65 7.0 14.0 0.00 0.00 0.00 36 1010.8
20260830060110 96 34 3.0 9.0 0.00 0.00 0.00 36 1011.0
20260830055600 96 67 5.0 9.0 0.00 0.00 0.00 37 1011.0
20260830055059 96 65 5.0 8.0 0.00 0.00 0.00 37 1010.8
20260830054623 97 82 4.0 8.0 0.00 0.00 0.00 37 1010.8
20260830054058 97 78 4.0 8.0 0.00 0.00 0.00 37 1010.7
20260830053600 97 73 5.0 8.0 0.00 0.00 0.00 37 1010.7
20260830053102 97 49 4.0 10.0 0.00 0.00 0.00 36 1010.8
20260830052559 97 45 4.0 10.0 0.00 0.00 0.00 36 1010.6
20260830052058 97 63 5.0 10.0 0.00 0.00 0.00 35 1010.6
20260830051619 98 68 3.0 6.0 0.00 0.00 0.00 34 1010.7
20260830051100 98 20 2.0 7.0 0.00 0.00 0.00 34 1010.6
20260830050559 98 90 3.0 7.0 0.00 0.00 0.00 34 1010.7
20260830050133 98 58 2.0 8.0 0.00 0.00 0.00 34 1010.7
20260830045602 98 19 2.0 11.0 0.00 0.00 0.00 34 1010.7
20260830045059 99 34 5.0 12.0 0.00 0.00 0.00 33 1010.4
20260830044621 99 39 6.0 12.0 0.00 0.00 0.00 33 1010.4
20260830044102 99 1 2.0 7.0 0.00 0.00 0.00 34 1010.4
20260830043559 99 350 1.0 8.0 0.00 0.00 0.00 34 1010.3
20260830043121 99 316 2.0 8.0 0.00 0.00 0.00 34 1010.3
20260830042602 99 83 5.0 8.0 0.00 0.00 0.00 34 1010.2
20260830042059 100 68 3.0 6.0 0.00 0.00 0.00 33 1010.4
20260830041614 100 80 1.0 4.0 0.00 0.00 0.00 32 1010.3
20260830041059 101 63 2.0 5.0 0.00 0.00 0.00 32 1010.3
20260830040601 102 0 1.0 6.0 0.00 0.00 0.00 31 1010.2
20260830040112 102 0 2.0 8.0 0.00 0.00 0.00 31 1010.1
20260830035559 102 201 3.0 8.0 0.00 0.00 0.00 31 1009.9
20260830035102 102 184 3.0 9.0 0.00 0.00 0.00 31 1009.8
20260830034609 102 155 3.0 9.0 0.00 0.00 0.00 31 1009.6
20260830034100 102 210 3.0 7.0 0.00 0.00 0.00 30 1009.5
20260830033559 102 170 3.0 7.0 0.00 0.00 0.00 30 1009.4
20260830033110 102 170 3.0 6.0 0.00 0.00 0.00 30 1009.4
20260830032601 102 179 3.0 6.0 0.00 0.00 0.00 29 1009.2
20260830032059 102 181 3.0 6.0 0.00 0.00 0.00 29 1009.1
20260830031610 102 153 2.0 6.0 0.00 0.00 0.00 29 1009.1
20260830031059 103 210 2.0 5.0 0.00 0.00 0.00 28 1009.0
20260830030559 103 112 2.0 5.0 0.00 0.00 0.00 27 1008.9
20260830030137 103 201 2.0 5.0 0.00 0.00 0.00 27 1008.9
20260830025603 103 175 2.0 7.0 0.00 0.00 0.00 27 1008.7
20260830025100 103 194 2.0 7.0 0.00 0.00 0.00 27 1008.6
20260830024610 103 249 3.0 7.0 0.00 0.00 0.00 27 1008.5
20260830024059 104 254 2.0 5.0 0.00 0.00 0.00 27 1008.4
20260830023602 104 231 3.0 5.0 0.00 0.00 0.00 27 1008.3
20260830023127 104 227 3.0 7.0 0.00 0.00 0.00 27 1008.3
20260830022602 104 231 3.0 7.0 0.00 0.00 0.00 27 1008.3
20260830022058 104 283 4.0 8.0 0.00 0.00 0.00 26 1008.0
20260830021612 104 197 4.0 9.0 0.00 0.00 0.00 26 1008.0
20260830021102 105 330 4.0 9.0 0.00 0.00 0.00 26 1008.0
20260830020559 105 279 4.0 8.0 0.00 0.00 0.00 26 1007.9
20260830020109 105 204 5.0 8.0 0.00 0.00 0.00 26 1007.7
20260830015559 105 248 4.0 8.0 0.00 0.00 0.00 26 1007.7
20260830015059 106 186 5.0 8.0 0.00 0.00 0.00 26 1007.7
20260830014628 106 240 4.0 8.0 0.00 0.00 0.00 26 1007.7
20260830014058 106 237 4.0 10.0 0.00 0.00 0.00 25 1007.7
20260830013559 106 234 4.0 10.0 0.00 0.00 0.00 25 1007.7
20260830013116 107 236 6.0 8.0 0.00 0.00 0.00 25 1007.7
20260830012559 107 269 4.0 7.0 0.00 0.00 0.00 25 1007.7
20260830012059 107 211 3.0 10.0 0.00 0.00 0.00 25 1007.6
20260830011610 108 249 4.0 10.0 0.00 0.00 0.00 25 1007.7
20260830011059 108 211 5.0 10.0 0.00 0.00 0.00 25 1007.6
20260830010601 108 220 6.0 10.0 0.00 0.00 0.00 25 1007.7
20260830010106 109 221 5.0 11.0 0.00 0.00 0.00 24 1007.7
20260830005601 109 207 5.0 11.0 0.00 0.00 0.00 24 1007.6
20260830005058 109 218 4.0 10.0 0.00 0.00 0.00 25 1007.6